When you browse on this site, cookies collect data to enhance your experience and personalize the content and advertising you see.
Visit our Privacy Policy to learn more. By continuing to use the site, you agree to this use of cookies and data.
  • In Österreich
  • Länderverzeichnis
  • Für 7 Tage
  • Wassertemperatur
  • Wetterkarte
  • News
  • Widgets
  • user-avatar
    Anmelden

    Stündliche Wetter Galata

    Heute, 22 Februar, Samstag

    Zeit Temperatur Niederschläge Wind Luftdruck Luftfeuchtigkeit
    00:00 +5°C° 0.1 mm 1 m/S 760 mmHg 89%
    01:00 +5°C° 0.1 mm 1 m/S 760 mmHg 89%
    02:00 +4°C° 0 mm 2 m/S 760 mmHg 93%
    03:00 +4°C° 0.4 mm 2 m/S 760 mmHg 94%
    04:00 +4°C° 0.4 mm 2 m/S 761 mmHg 94%
    05:00 +4°C° 0.4 mm 2 m/S 761 mmHg 95%
    06:00 +4°C° 0 mm 2 m/S 761 mmHg 93%
    07:00 +4°C° 0 mm 2 m/S 762 mmHg 92%
    08:00 +3°C° 0 mm 3 m/S 762 mmHg 91%
    09:00 +4°C° 0.1 mm 3 m/S 763 mmHg 88%
    10:00 +5°C° 0.1 mm 3 m/S 763 mmHg 84%
    11:00 +5°C° 0.1 mm 4 m/S 763 mmHg 81%
    12:00 +6°C° 0.2 mm 4 m/S 763 mmHg 76%
    13:00 +6°C° 0.2 mm 4 m/S 764 mmHg 72%
    14:00 +6°C° 0 mm 4 m/S 764 mmHg 68%
    15:00 +6°C° 0.1 mm 4 m/S 764 mmHg 67%
    16:00 +6°C° 0.1 mm 4 m/S 764 mmHg 66%
    17:00 +6°C° 0.1 mm 4 m/S 764 mmHg 66%
    18:00 +5°C° 0 mm 3 m/S 764 mmHg 69%
    19:00 +5°C° 0 mm 2 m/S 765 mmHg 72%
    20:00 +4°C° 0 mm 2 m/S 765 mmHg 75%
    21:00 +4°C° 0 mm 2 m/S 765 mmHg 75%
    22:00 +4°C° 0 mm 2 m/S 765 mmHg 76%
    23:00 +3°C° 0 mm 2 m/S 765 mmHg 76%

    Morgen, 23 Februar, Sonntag

    Zeit Temperatur Niederschläge Wind Luftdruck Luftfeuchtigkeit
    00:00 +3°C° 0 mm 2 m/S 765 mmHg 77%
    01:00 +3°C° 0 mm 2 m/S 765 mmHg 78%
    02:00 +3°C° 0 mm 2 m/S 765 mmHg 79%
    03:00 +3°C° 0 mm 2 m/S 764 mmHg 80%
    04:00 +2°C° 0 mm 2 m/S 763 mmHg 81%
    05:00 +2°C° 0 mm 2 m/S 763 mmHg 81%
    06:00 +2°C° 0 mm 2 m/S 763 mmHg 82%
    07:00 +2°C° 0 mm 3 m/S 763 mmHg 82%
    08:00 +2°C° 0 mm 3 m/S 763 mmHg 82%
    09:00 +4°C° 0 mm 3 m/S 763 mmHg 75%
    10:00 +5°C° 0 mm 4 m/S 762 mmHg 68%
    11:00 +7°C° 0 mm 5 m/S 762 mmHg 61%
    12:00 +8°C° 0 mm 5 m/S 761 mmHg 57%
    13:00 +9°C° 0 mm 5 m/S 761 mmHg 53%
    14:00 +10°C° 0 mm 5 m/S 760 mmHg 50%
    15:00 +9°C° 0 mm 5 m/S 760 mmHg 51%
    16:00 +9°C° 0 mm 5 m/S 759 mmHg 53%
    17:00 +9°C° 0 mm 5 m/S 758 mmHg 54%
    18:00 +8°C° 0 mm 5 m/S 758 mmHg 58%
    19:00 +7°C° 0 mm 4 m/S 758 mmHg 62%
    20:00 +6°C° 0 mm 4 m/S 758 mmHg 65%
    21:00 +6°C° 0 mm 4 m/S 758 mmHg 66%
    22:00 +6°C° 0 mm 4 m/S 757 mmHg 66%
    23:00 +6°C° 0 mm 4 m/S 756 mmHg 67%

    übermorgen, 24 Februar, Montag

    Zeit Temperatur Niederschläge Wind Luftdruck Luftfeuchtigkeit
    00:00 +5°C° 0 mm 4 m/S 756 mmHg 68%
    01:00 +5°C° 0 mm 4 m/S 755 mmHg 69%
    02:00 +5°C° 0 mm 4 m/S 755 mmHg 70%
    03:00 +5°C° 0 mm 4 m/S 754 mmHg 69%
    04:00 +5°C° 0 mm 4 m/S 753 mmHg 69%
    05:00 +5°C° 0 mm 4 m/S 752 mmHg 69%
    06:00 +6°C° 0 mm 5 m/S 752 mmHg 65%
    07:00 +7°C° 0 mm 5 m/S 752 mmHg 62%
    08:00 +7°C° 0 mm 6 m/S 752 mmHg 59%
    09:00 +10°C° 0 mm 7 m/S 752 mmHg 56%
    10:00 +12°C° 0 mm 8 m/S 752 mmHg 53%
    11:00 +14°C° 0 mm 10 m/S 752 mmHg 51%
    12:00 +14°C° 0 mm 10 m/S 752 mmHg 50%
    13:00 +13°C° 0 mm 10 m/S 752 mmHg 48%
    14:00 +13°C° 0 mm 11 m/S 753 mmHg 47%
    15:00 +12°C° 0 mm 9 m/S 753 mmHg 47%
    16:00 +11°C° 0 mm 7 m/S 754 mmHg 46%
    17:00 +10°C° 0 mm 5 m/S 754 mmHg 46%
    18:00 +10°C° 0 mm 4 m/S 756 mmHg 46%
    19:00 +9°C° 0 mm 3 m/S 757 mmHg 47%
    20:00 +7°C° 0 mm 2 m/S 758 mmHg 47%
    21:00 +7°C° 0 mm 3 m/S 759 mmHg 48%
    22:00 +5°C° 0 mm 3 m/S 759 mmHg 49%
    23:00 +5°C° 0 mm 3 m/S 760 mmHg 51%

    25 Februar, Dienstag

    Zeit Temperatur Niederschläge Wind Luftdruck Luftfeuchtigkeit
    00:00 +4°C° 0 mm 3 m/S 760 mmHg 53%
    01:00 +5°C° 0 mm 2 m/S 760 mmHg 56%
    02:00 +5°C° 0 mm 1 m/S 761 mmHg 58%
    03:00 +5°C° 0 mm 1 m/S 760 mmHg 60%
    04:00 +5°C° 0 mm 1 m/S 760 mmHg 62%
    05:00 +4°C° 0 mm 1 m/S 760 mmHg 63%
    06:00 +5°C° 0 mm 1 m/S 760 mmHg 65%
    07:00 +4°C° 0 mm 2 m/S 760 mmHg 66%
    08:00 +4°C° 0 mm 2 m/S 760 mmHg 68%
    09:00 +5°C° 0 mm 3 m/S 759 mmHg 61%
    10:00 +7°C° 0 mm 5 m/S 759 mmHg 54%
    11:00 +9°C° 0 mm 6 m/S 759 mmHg 47%
    12:00 +9°C° 0 mm 6 m/S 758 mmHg 47%
    13:00 +10°C° 0 mm 7 m/S 757 mmHg 46%
    14:00 +11°C° 0 mm 8 m/S 757 mmHg 46%
    15:00 +10°C° 0 mm 7 m/S 756 mmHg 50%
    16:00 +10°C° 0 mm 7 m/S 755 mmHg 53%
    17:00 +10°C° 0 mm 7 m/S 754 mmHg 56%
    18:00 +9°C° 0 mm 6 m/S 754 mmHg 59%
    19:00 +8°C° 0 mm 6 m/S 754 mmHg 62%
    20:00 +8°C° 0 mm 6 m/S 753 mmHg 65%
    21:00 +7°C° 0 mm 6 m/S 753 mmHg 65%
    22:00 +7°C° 0 mm 5 m/S 752 mmHg 65%
    23:00 +7°C° 0 mm 5 m/S 752 mmHg 65%

    26 Februar, Mittwoch

    Zeit Temperatur Niederschläge Wind Luftdruck Luftfeuchtigkeit
    00:00 +6°C° 0 mm 5 m/S 751 mmHg 65%
    01:00 +6°C° 0 mm 5 m/S 750 mmHg 65%
    02:00 +6°C° 0 mm 5 m/S 750 mmHg 65%
    03:00 +6°C° 0 mm 5 m/S 749 mmHg 67%
    04:00 +5°C° 0 mm 4 m/S 749 mmHg 69%
    05:00 +5°C° 0 mm 4 m/S 749 mmHg 71%
    06:00 +5°C° 0 mm 4 m/S 748 mmHg 71%
    07:00 +7°C° 0 mm 3 m/S 748 mmHg 71%
    08:00 +7°C° 0 mm 3 m/S 748 mmHg 71%
    09:00 +9°C° 0 mm 3 m/S 748 mmHg 66%
    10:00 +10°C° 0 mm 3 m/S 748 mmHg 62%
    11:00 +12°C° 0 mm 3 m/S 747 mmHg 57%
    12:00 +13°C° 0 mm 4 m/S 747 mmHg 56%
    13:00 +14°C° 0 mm 4 m/S 746 mmHg 54%
    14:00 +15°C° 0 mm 5 m/S 746 mmHg 53%
    15:00 +15°C° 0 mm 5 m/S 745 mmHg 57%
    16:00 +15°C° 0 mm 5 m/S 745 mmHg 62%
    17:00 +14°C° 0 mm 5 m/S 744 mmHg 66%
    18:00 +14°C° 0 mm 6 m/S 744 mmHg 71%
    19:00 +13°C° 0 mm 6 m/S 744 mmHg 76%
    20:00 +11°C° 0 mm 6 m/S 744 mmHg 80%
    21:00 +11°C° 0 mm 6 m/S 744 mmHg 79%
    22:00 +10°C° 0 mm 6 m/S 744 mmHg 79%
    23:00 +10°C° 0 mm 6 m/S 745 mmHg 78%

    27 Februar, Donnerstag

    Zeit Temperatur Niederschläge Wind Luftdruck Luftfeuchtigkeit
    00:00 +10°C° 0 mm 6 m/S 745 mmHg 79%
    01:00 +10°C° 0 mm 7 m/S 745 mmHg 79%
    02:00 +9°C° 0 mm 7 m/S 745 mmHg 80%
    03:00 +9°C° 0 mm 6 m/S 745 mmHg 83%
    04:00 +9°C° 0 mm 5 m/S 745 mmHg 85%
    05:00 +9°C° 0 mm 5 m/S 745 mmHg 88%
    06:00 +9°C° 0 mm 5 m/S 745 mmHg 88%
    07:00 +9°C° 0 mm 5 m/S 745 mmHg 89%
    08:00 +9°C° 0 mm 5 m/S 745 mmHg 90%
    09:00 +11°C° 0 mm 6 m/S 745 mmHg 81%
    10:00 +13°C° 0 mm 8 m/S 745 mmHg 73%
    11:00 +16°C° 0 mm 9 m/S 745 mmHg 64%
    12:00 +15°C° 0.2 mm 9 m/S 745 mmHg 65%
    13:00 +15°C° 0.2 mm 8 m/S 745 mmHg 67%
    14:00 +13°C° 0.2 mm 8 m/S 744 mmHg 69%
    15:00 +14°C° 0.4 mm 7 m/S 744 mmHg 70%
    16:00 +14°C° 0.4 mm 6 m/S 744 mmHg 71%
    17:00 +13°C° 0.4 mm 6 m/S 744 mmHg 73%
    18:00 +12°C° 0.2 mm 5 m/S 744 mmHg 76%
    19:00 +10°C° 0.2 mm 5 m/S 744 mmHg 80%
    20:00 +9°C° 0.2 mm 5 m/S 744 mmHg 84%
    21:00 +9°C° 0 mm 5 m/S 744 mmHg 84%
    22:00 +9°C° 0 mm 5 m/S 744 mmHg 85%
    23:00 +8°C° 0 mm 5 m/S 744 mmHg 85%
    Mehr zeigen